User: anonymous
Location: Astronight Observatory
(42.6003°N, 71.2981°W)
Time: 22:20:40
(UTC-04:00)
Language:

DELTA 2 R/B (1) - Orbit

View from above orbital plane
View from above orbital plane
View from above satellite
View from above satellite

Ground track
Ground track

The orbit data is extracted from the following two-line orbital elements,

1 27665U 03005C   14245.38984135 -.00000012  00000-0  28900-4 0  1013
2 27665 039.5751 257.1524 0008863 132.4443 011.7738 14.28213025605220
Epoch (UTC): 02 September 2014 09:21:22
Eccentricity: 0.0008863
inclination: 39.5751°
perigee height: 791 km
apogee height: 804 km
right ascension of ascending node: 257.1524°
argument of perigee: 132.4443°
revolutions per day: 14.28213025
mean anomaly at epoch: 11.7738°
orbit number at epoch: 60522

The dashed part of the orbit path shows where the satellite is in the earth's shadow,  

DLR